Weather in Komsomolsk

Russia / Kaliningrad Oblast     54°37′37″N   20°45′20″E
temp.,
°C
wind,
m/s
gust,
m/s
humid.,
%
clouds,
%
prec.,
mm/h
press.,
hPa
HPBL,
m
25 february, thu
thu2523:00+5wsw5109738 0.0 1027197
02:00+5wsw5109326 0.0 1027194
05:00+5wsw5109672 0.0 1026190
08:00+5wsw4109673 0.0 1027163
11:00+10sw598574 0.0 1026272
14:00+13sw5107437 0.0 1025431
17:00+11sw49840 0.0 1023280
20:00+9wsw513920 0.0 1022300
26 february, fri
fri2623:00+8wsw511925 0.0 1021279
02:00+8w715914 0.0 1021558
05:00+5w6149048 0.0 1020518
08:00+5w7158273 0.0 1021513
11:00+6w81474100 0.0 1021791
14:00+8w10157065 0.0 10201183
17:00+5w9148085 0.0 10181070
20:00+5w9158492 0.0 1019803
27 february, sat
sat2723:00+4w7158723 0.0 1018492
02:00+4wnw6138811 0.0 1020382
05:00+3nw6138649 0.0 1020470
08:00+2nw5138825 0.0 1023510
11:00+5nnw812740 0.0 1024802
14:00+5nnw812720 0.0 1026816
17:00+4nnw712760 0.0 1027783
20:00+1nnw511876 0.0 1029513
28 february, sun
sun2823:000nw36929 0.0 1030148
02:000nw35924 0.0 1031109
05:000wnw339372 0.0 103076
08:00+1wnw239186 0.0 103172
11:00+5wnw3673100 0.0 1032479
14:00+7nw466077 0.0 1032677
17:00+5nw48670 0.0 1031421
20:00+2wnw38861 0.0 1032188
1 march, mon
mon123:00+2wnw369059 0.0 1033132
02:00+1wnw369230 0.0 1033114
05:00+1wnw36940 0.0 1033130
08:00+2w48940 0.0 1033159
11:00+6wnw47800 0.0 1034392
14:00+8w47710 0.0 1034481
17:00+6w587742 0.0 1033435
20:00+3wsw389171 0.0 1032214